Carnival Pride — H3VU — position and weather

sailwx.info

Track history (hours):
 
Tides and Currents Weather Stations Pressure Air Temp Water Temp Dewpoint Dewpoint Depression Visibility Wind Speed Wind Dir Waves Ship Positions

Carnival Pride

Operator: Carnival Cruise Lines

Last reported at 2014-Sep-01 21:27 UTC. Time now 2014-Sep-03 06:55 UTC.
Position N 33°53' W 076°52'.

Type: Ship. MMSI: 354215000.

Date/timePositionNaut miles runAvg speedWind from/ knotsBaromVisibWave heightAir tempDewpointWater temp
2014-Sep-01 21:27N 33°53' W 076°52'1615.4
2014-Sep-01 20:24N 34°04' W 076°37'16813.0
2014-Sep-01 07:25N 36°47' W 075°45'1415.8
2014-Sep-01 06:33N 36°56' W 075°58'1514.8
2014-Sep-01 05:31N 37°08' W 076°09'2117.4
2014-Sep-01 04:18N 37°29' W 076°03'6817.6
2014-Sep-01 00:27N 38°34' W 076°26'1617.2
2014-Aug-31 23:32N 38°50' W 076°24'1615.5
2014-Aug-31 22:31N 39°06' W 076°24'1111.8
2014-Aug-31 21:34N 39°14' W 076°33'3 2.7
2014-Aug-31 20:33N 39°16' W 076°36'0 0.0
2014-Aug-31 19:32N 39°16' W 076°36'0 0.0
2014-Aug-31 18:32N 39°16' W 076°36'0 0.0
2014-Aug-31 17:31N 39°16' W 076°36'0 0.0
2014-Aug-31 16:31N 39°16' W 076°36'0 0.0
2014-Aug-31 15:33N 39°16' W 076°36'0 0.0
2014-Aug-31 14:33N 39°16' W 076°36'0 0.0
2014-Aug-31 13:29N 39°16' W 076°36'1 0.9
2014-Aug-31 12:34N 39°15' W 076°35'10 9.6
2014-Aug-31 11:33N 39°10' W 076°25'1413.7
2014-Aug-31 10:33N 38°56' W 076°23'1816.8
2014-Aug-31 09:31N 38°38' W 076°25'7718.1
2014-Aug-31 05:15N 37°23' W 076°05'1418.8
2014-Aug-31 04:32N 37°10' W 076°09'2016.8
2014-Aug-31 03:22N 36°55' W 075°54'14117.9
2014-Aug-30 19:30N 34°34' W 075°53'2021.0
2014-Aug-30 18:32N 34°19' W 076°10'44221.0
2014-Aug-29 21:32N 27°32' W 079°31'2522.6
2014-Aug-29 20:27N 27°10' W 079°20'85 6.1
2014-Aug-29 06:33N 26°09' W 078°13'1211.8
2014-Aug-29 05:33N 26°05' W 078°00'  
2014-Aug-26 18:00N 30°30' W 079°30'28712.0 020 / 131015.0 2.029.026.030.0
2014-Aug-25 18:00N 33°42' W 075°18'18216.9 080 / 381013.0 2.528.025.029.0
2014-Aug-25 07:14N 36°43' W 075°42'1216.4
2014-Aug-25 06:30N 36°52' W 075°52'1515.3
2014-Aug-25 05:33N 37°03' W 076°04'1816.6
2014-Aug-25 04:29N 37°20' W 076°05'7918.0
2014-Aug-25 00:04N 38°38' W 076°25'1019.2
2014-Aug-24 23:33N 38°48' W 076°25'1817.0
2014-Aug-24 22:32N 39°06' W 076°24'1111.6
2014-Aug-24 21:34N 39°14' W 076°33'3 2.7
2014-Aug-24 20:32N 39°16' W 076°36'0 0.0
2014-Aug-24 19:31N 39°16' W 076°36'0 0.0
2014-Aug-24 18:31N 39°16' W 076°36'0 0.0
2014-Aug-24 17:33N 39°16' W 076°36'0 0.0
2014-Aug-24 16:33N 39°16' W 076°36'0 0.0
2014-Aug-24 15:33N 39°16' W 076°36'0 0.0
2014-Aug-24 14:32N 39°16' W 076°36'0 0.0
2014-Aug-24 13:31N 39°16' W 076°36'0 0.2
2014-Aug-24 12:33N 39°16' W 076°36'8 8.2
2014-Aug-24 11:33N 39°11' W 076°27'1313.1
2014-Aug-24 10:34N 38°58' W 076°23'1616.2
2014-Aug-24 09:33N 38°42' W 076°26'8118.3
2014-Aug-24 05:09N 37°23' W 076°05'1218.7
2014-Aug-24 04:31N 37°12' W 076°09'1716.8
2014-Aug-24 03:30N 36°57' W 075°58'1514.9
2014-Aug-24 02:31N 36°48' W 075°44'12018.7
2014-Aug-23 20:05N 34°48' W 075°36'  
Track history (hours):
 
Tides and Currents Weather Stations Pressure Air Temp Water Temp Dewpoint Dewpoint Depression Visibility Wind Speed Wind Dir Waves Ship Positions

Carnival Pride

Operator: Carnival Cruise Lines

Last reported at 2014-Sep-01 21:27 UTC. Time now 2014-Sep-03 06:55 UTC.
Position N 33°53' W 076°52'.

Type: Ship. MMSI: 354215000.

Date/timePositionNaut miles runAvg speedWind from/ knotsBaromVisibWave heightAir tempDewpointWater temp
2014-Sep-01 21:27N 33°53' W 076°52'1615.4
2014-Sep-01 20:24N 34°04' W 076°37'16813.0
2014-Sep-01 07:25N 36°47' W 075°45'1415.8
2014-Sep-01 06:33N 36°56' W 075°58'1514.8
2014-Sep-01 05:31N 37°08' W 076°09'2117.4
2014-Sep-01 04:18N 37°29' W 076°03'6817.6
2014-Sep-01 00:27N 38°34' W 076°26'1617.2
2014-Aug-31 23:32N 38°50' W 076°24'1615.5
2014-Aug-31 22:31N 39°06' W 076°24'1111.8
2014-Aug-31 21:34N 39°14' W 076°33'3 2.7
2014-Aug-31 20:33N 39°16' W 076°36'0 0.0
2014-Aug-31 19:32N 39°16' W 076°36'0 0.0
2014-Aug-31 18:32N 39°16' W 076°36'0 0.0
2014-Aug-31 17:31N 39°16' W 076°36'0 0.0
2014-Aug-31 16:31N 39°16' W 076°36'0 0.0
2014-Aug-31 15:33N 39°16' W 076°36'0 0.0
2014-Aug-31 14:33N 39°16' W 076°36'0 0.0
2014-Aug-31 13:29N 39°16' W 076°36'1 0.9
2014-Aug-31 12:34N 39°15' W 076°35'10 9.6
2014-Aug-31 11:33N 39°10' W 076°25'1413.7
2014-Aug-31 10:33N 38°56' W 076°23'1816.8
2014-Aug-31 09:31N 38°38' W 076°25'7718.1
2014-Aug-31 05:15N 37°23' W 076°05'1418.8
2014-Aug-31 04:32N 37°10' W 076°09'2016.8
2014-Aug-31 03:22N 36°55' W 075°54'14117.9
2014-Aug-30 19:30N 34°34' W 075°53'2021.0
2014-Aug-30 18:32N 34°19' W 076°10'44221.0
2014-Aug-29 21:32N 27°32' W 079°31'2522.6
2014-Aug-29 20:27N 27°10' W 079°20'85 6.1
2014-Aug-29 06:33N 26°09' W 078°13'1211.8
2014-Aug-29 05:33N 26°05' W 078°00'  
2014-Aug-26 18:00N 30°30' W 079°30'28712.0 020 / 131015.0 2.029.026.030.0
2014-Aug-25 18:00N 33°42' W 075°18'18216.9 080 / 381013.0 2.528.025.029.0
2014-Aug-25 07:14N 36°43' W 075°42'1216.4
2014-Aug-25 06:30N 36°52' W 075°52'1515.3
2014-Aug-25 05:33N 37°03' W 076°04'1816.6
2014-Aug-25 04:29N 37°20' W 076°05'7918.0
2014-Aug-25 00:04N 38°38' W 076°25'1019.2
2014-Aug-24 23:33N 38°48' W 076°25'1817.0
2014-Aug-24 22:32N 39°06' W 076°24'1111.6
2014-Aug-24 21:34N 39°14' W 076°33'3 2.7
2014-Aug-24 20:32N 39°16' W 076°36'0 0.0
2014-Aug-24 19:31N 39°16' W 076°36'0 0.0
2014-Aug-24 18:31N 39°16' W 076°36'0 0.0
2014-Aug-24 17:33N 39°16' W 076°36'0 0.0
2014-Aug-24 16:33N 39°16' W 076°36'0 0.0
2014-Aug-24 15:33N 39°16' W 076°36'0 0.0
2014-Aug-24 14:32N 39°16' W 076°36'0 0.0
2014-Aug-24 13:31N 39°16' W 076°36'0 0.2
2014-Aug-24 12:33N 39°16' W 076°36'8 8.2
2014-Aug-24 11:33N 39°11' W 076°27'1313.1
2014-Aug-24 10:34N 38°58' W 076°23'1616.2
2014-Aug-24 09:33N 38°42' W 076°26'8118.3
2014-Aug-24 05:09N 37°23' W 076°05'1218.7
2014-Aug-24 04:31N 37°12' W 076°09'1716.8
2014-Aug-24 03:30N 36°57' W 075°58'1514.9
2014-Aug-24 02:31N 36°48' W 075°44'12018.7
2014-Aug-23 20:05N 34°48' W 075°36'  

Dump ship's entire track history